Starlink 34101

operational
NORAD ID: 63812 Int'l Des: 2025-092 Owner: SPXS Country: US Constellation: starlink
LEOCIRCULAR

About Starlink 34101

Description loading...

Live Position

Loading 3D Globe...

Upcoming Passes

Altitude History

Altitude vs Time

uPlot chart will show altitude changes over time

Two-Line Element Set

1 63812U 25092J 26035.30631086 .00039768 00000-0 14461-2 0 9992
2 63812 43.0025 0.6817 0001865 278.2776 81.7864 15.27597915 43458
Epoch: Feb 4, 2026 • Age: 21 hours

Current Status

Altitude 485.8 km
Velocity 7.63 km/s
Sub-Earth Point 38.08°N, 143.32°W
Launch Date May 4, 2025
Age 0.7 years
Type internet

Technical Details

Classification Payload
Mass 575.00 kg
Dry Mass 530.00 kg
Total Mass 575.00 kg
Length 0.30 m
Diameter 4.10 m
Span 29.00 m
Shape Box + pan
Manufacturer SPXS
Bus Type Starlink V2MO
Phase Status In Orbit
Owner/State SPXS/US

Large Constellations

Loading constellations...